Temperature
23 23 22 21 21 21 23 24 25 24 24 24 24 23 22 21 20 19 19 19 19 19 19 19 19 19 19 18 18 18 18 18 18 18 18 18 18 18 18 18 18 18 18 18 18 18 18 18 18
23 23 22 21 21 22 23 25 25 25 24 24 23 23 22 20 20 19 19 19 19 19 19 19 19 19 19 18 18 18 18 18 18 18 18 18 18 18 18 18 18 18 18 18 18 18 18 18 18
23 22 22 21 22 23 24 25 25 25 25 24 24 23 22 20 19 19 19 19 20 19 19 19 19 19 19 19 19 18 18 18 18 18 18 18 18 18 18 18 18 18 18 18 18 18 18 18 18
23 22 22 22 24 25 25 25 26 25 25 24 23 22 21 21 20 20 20 20 20 19 19 19 19 19 19 19 19 18 18 18 18 18 18 18 18 18 18 18 18 18 18 18 18 18 18 18 18
24 23 22 23 25 27 27 27 26 25 25 24 23 21 21 21 21 20 20 20 20 20 19 19 19 19 19 19 19 18 18 18 18 18 18 18 18 18 18 18 18 18 18 18 18 18 18 18 18
24 23 23 24 26 27 27 27 26 24 24 23 22 21 20 20 20 20 20 20 20 20 19 19 19 19 19 19 19 18 18 18 18 18 18 18 18 18 18 18 18 18 18 18 18 18 18 18 18
24 23 24 25 26 26 27 27 26 24 24 23 23 21 20 20 21 20 20 20 20 20 20 19 19 19 19 19 19 18 18 18 18 18 18 18 18 18 18 18 18 18 18 18 18 18 18 18 18
26 23 25 25 26 26 27 27 26 25 24 24 23 21 20 20 21 20 20 20 20 20 19 19 19 19 19 19 19 18 18 18 18 18 18 18 18 18 18 18 18 18 18 18 18 18 18 18 18
27 24 24 26 26 26 27 27 26 26 25 24 24 23 22 21 21 20 20 19 19 19 19 19 19 19 19 19 18 18 18 18 18 18 18 18 18 18 18 18 18 18 18 18 18 18 18 18 18
27 24 26 27 27 27 27 27 27 26 24 24 23 22 22 21 21 20 20 20 19 19 19 19 19 19 19 19 18 18 18 18 18 18 18 18 18 18 18 18 18 18 18 18 18 18 18 18 18
28 27 28 29 29 29 28 27 27 25 23 23 23 22 21 21 21 21 20 20 20 20 19 19 19 19 19 19 18 18 18 18 18 18 18 18 18 18 18 18 18 18 18 18 18 18 18 18 18
29 29 30 29 30 29 28 27 27 25 25 25 24 23 22 22 21 21 21 20 20 20 20 19 19 19 19 19 19 18 18 18 18 18 18 18 18 18 18 18 18 18 18 18 18 18 18 18 18
29 29 30 30 29 29 28 27 27 25 25 24 24 23 23 22 22 22 21 21 21 20 20 20 19 19 19 19 19 18 18 18 18 18 18 18 18 18 18 18 18 18 18 18 18 18 18 18 18
29 29 29 30 29 29 28 27 26 25 25 24 24 23 23 23 22 22 21 21 21 20 20 20 19 19 19 19 19 18 18 18 18 18 18 18 18 18 18 18 18 18 18 18 18 18 18 18 18
30 28 28 28 29 28 27 26 25 25 25 24 24 23 23 23 23 22 22 22 21 21 20 20 20 19 19 19 19 19 19 19 18 18 18 18 18 18 18 18 18 18 18 18 18 18 18 18 18
28 27 27 28 28 28 26 24 25 25 24 24 24 23 23 23 23 23 22 22 21 21 20 20 20 19 19 19 19 19 19 19 19 18 18 18 18 18 18 18 18 18 18 18 18 18 18 18 18
26 26 26 28 28 28 26 24 25 25 25 24 24 24 23 23 23 23 22 22 22 21 21 20 20 20 19 19 19 19 19 19 19 19 18 18 18 18 18 18 18 18 18 18 18 18 18 18 18
26 26 27 27 28 27 26 25 25 25 25 24 24 24 23 23 23 23 23 22 22 21 21 21 20 20 20 19 19 19 19 19 19 19 18 18 18 18 18 18 18 18 18 18 18 18 18 18 18
27 27 27 27 28 27 26 25 25 25 25 25 24 24 24 24 24 23 23 22 22 21 21 21 20 20 20 19 19 19 19 19 19 18 18 18 18 18 18 18 18 18 18 18 18 18 17 18 18
28 27 27 27 28 27 26 25 25 25 25 25 24 24 24 24 23 23 23 22 22 22 21 21 21 20 20 20 19 19 19 19 19 19 18 18 18 18 18 18 18 18 18 18 18 18 18 18 17
27 27 27 27 27 27 26 25 25 25 25 25 25 25 24 24 23 23 23 23 22 22 22 21 21 21 20 20 19 19 19 19 19 18 18 18 18 18 18 18 18 18 18 18 18 18 18 18 18
27 28 28 28 26 24 25 23 24 24 24 25 25 25 24 24 24 24 23 23 23 22 22 22 21 21 20 20 20 19 19 19 19 19 19 18 18 18 18 18 18 18 18 18 18 18 18 18 18
28 28 28 27 25 24 24 23 23 23 23 24 24 25 25 24 24 24 24 23 23 23 22 22 21 21 20 20 20 19 19 19 19 19 18 18 18 18 18 18 18 18 18 18 18 18 18 18 18
29 27 26 24 22 23 24 24 22 22 24 24 24 25 24 24 24 24 24 23 23 23 22 22 21 21 21 20 20 20 19 19 19 19 18 18 18 18 18 18 18 18 18 18 18 18 18 18 18
27 24 23 23 22 22 23 24 22 24 25 25 25 25 25 25 24 24 23 23 23 23 22 22 21 21 21 20 20 20 20 19 19 19 19 19 18 18 18 18 18 18 18 18 18 18 18 18 18
26 24 23 23 22 22 23 23 23 25 25 26 26 25 25 25 24 24 23 23 23 23 22 22 22 21 21 20 20 20 20 19 19 19 19 19 19 18 18 18 18 18 18 18 18 18 18 17 17
26 24 23 22 22 22 22 23 24 24 24 24 24 24 24 24 24 24 23 23 23 23 22 22 22 21 21 21 20 20 20 20 19 19 19 19 18 18 18 18 18 18 18 18 17 17 17 17 17
26 25 21 21 22 22 23 23 22 23 23 23 23 23 23 24 24 23 23 23 23 23 22 22 22 21 21 21 20 20 20 20 19 19 19 19 19 18 18 18 18 18 18 18 17 17 17 17 17
26 25 22 20 20 21 22 22 24 23 22 22 22 23 23 24 24 23 23 23 22 22 22 22 21 21 21 21 20 20 20 19 19 19 19 19 19 18 18 18 18 18 18 18 17 17 17 17 17
26 25 22 22 21 20 20 21 24 22 22 22 22 22 23 23 23 23 22 22 22 22 22 21 21 21 21 20 20 20 20 19 19 19 19 19 18 18 18 18 18 18 18 17 17 17 17 17 17
Wind_Speed
11 8 3 1 2 4 6 6 8 9 7 8 11 10 9 6 5 6 4 9 11 9 10 12 14 15 15 15 16 16 16 17 17 16 16 16 16 16 16 16 16 16 16 15 15 15 15 16 16
8 6 2 1 4 5 5 7 11 10 11 12 11 11 9 7 7 10 6 10 12 11 11 12 14 15 15 15 15 16 16 16 16 16 15 15 15 15 15 15 15 16 16 15 15 15 15 16 16
7 5 2 2 2 6 6 7 12 12 12 10 7 7 6 7 9 6 8 14 11 10 11 13 15 15 15 15 15 15 15 15 15 15 15 15 14 14 14 15 15 15 15 15 14 14 14 14 14
3 1 1 3 4 6 9 9 13 14 11 10 10 8 5 6 6 10 15 15 12 9 11 14 16 16 16 15 15 15 15 14 14 14 13 13 13 13 14 14 15 15 15 15 14 13 13 13 13
2 2 3 3 5 7 10 12 12 12 6 10 11 9 6 6 15 17 15 14 12 8 9 13 16 15 15 15 15 14 14 13 13 13 13 13 13 13 13 14 14 14 14 13 13 13 12 11 11
2 2 3 3 6 6 8 12 15 16 15 13 12 10 5 10 16 16 15 12 11 10 9 12 15 15 15 15 14 14 13 13 12 12 12 12 12 12 13 14 14 14 13 13 12 12 11 9 9
3 3 2 5 7 7 8 10 13 15 14 10 11 8 6 10 14 15 13 12 11 10 9 9 11 13 14 14 14 13 13 12 12 12 12 11 11 12 12 13 13 13 13 12 11 10 9 8 7
4 3 2 4 8 6 7 7 11 16 12 14 9 9 9 12 14 14 13 11 10 8 8 7 9 10 11 12 13 13 13 12 12 12 11 11 10 11 11 12 13 13 12 11 10 9 8 6 5
4 4 4 6 8 7 7 10 10 10 12 8 5 9 15 18 17 14 11 9 9 9 7 6 7 8 10 11 11 12 12 12 11 10 11 10 8 9 9 11 12 12 11 10 9 8 7 6 4
5 5 8 8 9 10 11 13 10 9 11 9 12 15 18 18 17 15 13 12 10 10 8 7 7 7 8 9 9 9 9 9 9 9 8 8 7 7 8 10 11 11 10 9 8 7 6 4 3
4 6 5 6 10 11 11 11 8 13 10 15 19 20 19 17 15 15 13 12 12 12 10 8 7 7 7 5 7 7 7 8 8 9 9 8 7 6 6 7 7 7 7 6 6 5 4 4 3
2 2 6 6 9 11 11 10 8 9 12 18 20 20 18 17 16 15 14 12 11 11 10 9 8 7 6 7 6 6 6 6 6 8 9 8 5 5 5 5 6 6 5 4 4 3 3 3 4
2 2 5 7 9 9 12 12 10 9 15 17 18 17 16 16 14 13 14 12 11 11 10 9 8 8 6 5 5 6 5 6 8 8 8 8 5 4 5 4 6 6 5 5 3 3 3 3 3
1 3 4 5 7 8 12 10 9 12 18 18 17 15 15 15 14 12 12 12 12 11 10 9 9 8 7 5 4 4 6 7 8 7 8 9 8 6 4 4 4 5 6 6 5 3 2 2 2
3 6 4 3 4 5 11 7 9 16 18 17 16 15 14 13 14 14 14 14 13 12 10 10 9 8 7 6 5 5 6 7 6 7 9 9 8 7 5 4 3 4 6 5 3 2 1 1 2
4 4 1 2 4 5 8 5 7 15 18 16 15 15 14 13 14 14 14 13 12 12 11 10 10 8 7 6 5 4 6 6 6 7 8 9 9 8 5 4 3 5 5 4 3 3 2 1 2
3 1 3 3 4 5 5 4 8 11 15 16 15 14 14 13 12 13 15 14 14 13 12 10 8 8 7 6 5 4 5 5 6 7 7 8 8 8 6 4 3 4 3 3 3 3 3 2 2
4 3 3 4 5 6 5 7 12 12 14 15 15 14 14 15 14 14 14 15 14 12 11 10 9 8 7 5 4 3 3 3 4 5 6 8 7 7 6 4 3 4 3 3 3 3 3 3 3
7 4 4 5 4 5 8 9 13 14 13 13 14 14 14 15 13 14 15 15 13 11 11 10 10 8 6 4 4 4 3 3 3 4 6 7 7 7 6 3 3 3 3 3 4 3 3 2 3
4 4 5 3 3 4 6 9 11 14 15 16 17 17 16 13 12 14 14 15 14 14 12 11 10 10 8 6 5 4 4 3 3 3 4 7 7 7 6 5 4 4 3 3 3 3 3 2 3
6 6 6 4 0 2 4 2 5 8 8 10 13 15 16 18 17 16 16 15 15 14 14 13 11 10 9 7 4 3 3 2 2 2 3 5 7 7 5 5 5 4 4 4 4 4 5 3 2
7 7 5 3 2 2 4 3 6 7 7 11 13 12 14 16 16 16 16 16 16 16 14 12 12 10 9 8 7 6 5 5 5 4 3 4 5 6 6 5 5 4 4 4 4 4 4 4 3
7 6 4 4 4 1 1 3 6 3 8 12 13 14 14 15 17 17 17 17 16 15 14 12 11 10 9 9 9 8 6 5 3 3 4 3 3 4 5 5 4 4 3 4 4 3 4 4 4
4 2 4 5 4 2 6 5 6 7 13 13 13 15 15 15 15 15 14 13 13 14 13 12 12 10 10 10 9 8 8 6 5 4 4 3 3 3 4 4 4 4 4 4 4 4 4 4 4
1 4 3 4 3 6 5 4 8 10 11 12 14 14 14 14 14 14 14 14 14 15 15 13 13 11 10 10 9 8 8 8 8 6 6 5 3 3 4 4 4 4 4 4 4 4 4 4 4
5 9 8 6 6 6 3 5 7 6 6 8 9 9 10 12 14 16 16 16 15 16 15 14 13 12 11 10 9 8 8 6 5 6 5 5 5 5 4 4 4 5 5 5 4 4 4 4 4
4 4 9 8 4 2 4 5 6 2 4 5 6 7 8 11 12 13 14 14 14 14 14 14 13 11 11 10 9 8 7 7 6 6 5 4 3 4 4 4 4 4 4 4 4 3 4 3 4
6 6 5 5 5 3 4 4 4 3 3 3 5 7 7 7 8 8 10 12 12 12 12 11 12 11 10 9 9 8 7 7 6 5 5 4 4 3 4 4 4 4 3 3 3 2 3 3 3
1 2 4 4 6 6 4 6 5 7 7 7 6 6 7 7 8 7 8 9 10 10 10 10 10 9 9 9 8 7 7 7 6 6 5 5 4 4 5 4 4 4 3 3 3 3 2 3 3
5 6 6 5 4 5 5 6 4 4 5 6 6 6 5 6 7 7 8 8 8 10 10 10 10 9 9 9 7 7 7 7 7 6 6 5 5 5 4 4 4 4 3 3 3 4 3 3 4
Wind_Direction
165 156 157 149 49 56 87 99 104 88 70 70 82 90 90 75 108 133 152 144 134 134 138 131 126 122 120 119 117 116 115 114 113 114 114 114 114 114 116 117 118 119 120 119 119 116 114 121 124
161 160 152 66 76 85 88 108 101 103 120 108 86 85 81 74 90 115 128 141 132 132 136 134 129 125 123 122 121 119 118 118 116 116 116 117 118 118 119 120 121 121 121 121 121 120 117 120 122
168 182 141 72 109 129 126 122 117 112 116 105 93 71 75 105 111 122 138 135 127 128 135 137 133 130 127 125 124 122 121 120 119 118 119 120 122 123 123 123 124 124 123 123 123 123 122 121 122
157 163 45 72 117 135 139 140 123 114 94 90 97 79 73 110 116 129 135 133 128 130 138 139 137 135 132 130 128 125 124 123 121 120 120 123 124 125 126 127 128 127 127 127 126 125 126 126 125
122 107 59 70 103 117 127 130 123 112 96 97 98 99 88 91 116 128 135 136 135 135 139 141 140 138 135 134 132 130 127 125 123 123 124 125 126 127 128 128 129 131 131 131 130 128 129 129 128
110 83 71 89 98 105 123 123 112 107 113 111 108 108 104 126 128 135 137 137 137 137 138 141 141 141 139 136 134 134 132 130 129 126 126 127 127 129 133 134 133 133 134 134 133 133 134 133 133
143 114 123 121 106 111 126 127 124 127 127 129 127 106 121 141 141 139 135 134 133 136 137 140 141 141 142 142 140 139 137 135 134 133 130 129 129 133 139 140 139 138 139 139 139 139 141 143 143
168 118 111 123 118 125 132 121 133 132 126 135 132 129 151 161 146 138 134 133 134 136 140 142 142 143 147 147 146 144 143 141 140 139 135 134 132 134 139 143 143 145 145 145 146 146 147 152 155
146 104 157 161 143 147 136 112 117 116 125 141 131 134 149 148 141 137 135 134 138 141 147 148 149 151 151 151 153 151 150 149 148 147 143 138 136 136 140 145 148 150 152 152 154 157 159 161 165
142 151 188 175 156 152 142 129 130 116 119 114 114 126 140 143 143 145 147 150 154 159 163 160 156 158 158 158 155 157 155 156 155 155 151 147 148 153 153 157 157 158 161 165 170 176 181 189 202
156 168 161 152 149 144 139 138 125 128 136 143 143 147 150 148 148 152 155 155 157 162 163 162 163 165 164 158 157 162 159 160 166 168 167 163 161 166 164 167 168 168 169 178 184 193 202 209 213
147 162 135 141 136 136 141 138 130 141 157 155 150 151 152 153 156 158 159 159 155 155 160 165 165 163 163 158 162 165 163 165 172 179 177 168 163 163 169 173 177 179 186 190 201 206 209 213 218
83 90 103 124 121 128 130 134 130 136 144 149 147 149 155 158 161 161 160 158 154 159 163 163 161 161 161 156 165 161 165 168 173 174 174 170 160 160 171 179 183 187 191 191 200 204 206 214 210
209 91 95 107 116 127 125 122 116 144 147 150 152 157 162 163 162 159 157 159 159 161 163 161 160 163 159 157 157 157 167 166 163 167 171 170 167 166 163 168 175 187 193 195 195 197 198 192 178
82 72 54 86 107 123 111 106 146 153 151 157 163 166 168 167 163 165 166 164 162 162 161 160 159 158 157 160 164 157 161 159 159 170 174 171 170 166 164 160 168 188 193 190 183 192 189 156 139
46 79 124 226 141 136 109 152 175 160 157 164 172 175 172 173 171 170 166 162 160 159 161 165 162 157 160 159 159 152 157 158 164 170 174 175 176 174 164 158 174 188 179 170 154 151 142 133 131
37 132 206 230 193 148 119 177 187 175 167 171 176 179 176 176 175 173 168 165 163 163 163 165 159 159 162 158 153 151 153 161 169 170 171 179 182 179 167 163 174 171 158 156 162 149 148 149 152
234 229 226 214 198 148 154 191 183 184 178 179 181 182 180 180 182 175 169 167 166 166 164 165 162 163 161 150 133 129 138 159 164 168 175 178 182 180 168 165 172 163 148 152 146 144 145 158 170
214 222 235 243 199 155 179 182 187 191 184 181 185 187 187 188 183 174 171 169 167 166 164 167 167 170 161 157 154 152 167 177 172 180 181 176 179 180 171 166 166 165 166 167 158 146 146 164 143
220 226 240 269 202 162 177 194 198 195 195 189 190 189 189 186 180 179 176 173 172 172 170 169 171 173 171 174 172 166 159 169 179 185 181 182 181 183 182 173 178 176 170 167 164 157 158 177 157
251 216 216 214 267 75 121 248 218 213 208 200 196 192 188 186 187 183 180 180 175 176 176 176 175 174 176 170 154 139 113 104 133 176 189 192 187 187 186 178 177 180 175 182 188 179 172 189 206
252 239 201 176 126 255 152 208 252 212 213 208 200 190 188 191 189 184 181 181 181 182 179 175 175 176 177 169 163 161 167 179 192 187 185 188 187 185 187 180 177 181 181 189 201 191 182 176 204
236 241 196 166 156 215 268 158 266 197 208 215 202 193 191 192 187 185 184 183 182 180 179 178 174 178 177 174 174 174 181 187 177 162 167 180 185 182 180 174 172 177 184 197 203 192 186 186 193
235 30 34 58 81 225 232 183 240 212 208 207 198 192 190 192 186 185 182 177 178 179 177 177 176 182 180 178 178 180 181 178 166 168 176 184 185 189 192 184 180 185 192 200 204 198 192 201 203
72 95 32 354 349 249 240 192 235 229 215 200 195 191 189 188 186 182 175 176 179 179 178 179 178 183 183 180 181 183 180 175 178 180 184 182 184 195 208 202 196 199 206 209 204 198 204 205 206
222 151 166 197 219 261 284 220 250 247 214 190 181 178 180 185 185 186 183 179 179 180 178 177 179 182 182 181 184 182 177 177 183 187 184 186 193 202 203 202 205 207 207 213 206 208 216 212 216
203 197 178 159 192 217 265 274 315 7 115 140 146 148 169 183 185 185 180 179 177 177 178 176 176 177 181 183 179 178 179 179 182 184 181 186 198 204 198 199 200 207 208 210 197 209 224 219 222
173 167 98 125 167 227 267 263 235 237 180 154 139 151 160 164 168 172 176 180 177 175 172 171 173 176 175 178 183 187 186 186 183 176 182 187 197 203 187 192 196 200 200 201 195 212 227 218 230
258 121 123 136 160 166 216 260 233 196 171 155 146 152 156 161 162 163 168 166 166 163 165 167 170 171 174 176 178 183 183 182 179 181 188 188 193 194 191 192 190 192 199 201 199 220 228 229 241
200 190 155 160 222 173 175 255 288 163 146 133 125 119 130 157 158 159 155 153 159 163 163 166 171 173 177 177 176 181 182 178 181 192 193 186 189 194 193 188 190 202 206 203 201 219 229 230 243
Height
1495 1495 1496 1498 1500 1507 1508 1501 1495 1495 1497 1498 1497 1498 1502 1505 1510 1518 1516 1515 1515 1516 1517 1518 1519 1519 1519 1520 1520 1520 1521 1521 1522 1522 1523 1524 1525 1526 1527 1528 1529 1531 1532 1533 1534 1534 1533 1534 1537
1495 1496 1498 1498 1505 1518 1512 1499 1497 1496 1498 1498 1499 1501 1503 1508 1509 1512 1513 1515 1516 1517 1518 1519 1520 1520 1521 1521 1522 1522 1522 1523 1524 1524 1525 1526 1526 1527 1528 1530 1531 1532 1534 1535 1536 1536 1536 1537 1540
1496 1497 1498 1499 1506 1513 1509 1498 1496 1497 1498 1497 1501 1504 1506 1510 1511 1513 1514 1516 1517 1519 1519 1520 1521 1522 1522 1523 1523 1524 1524 1524 1525 1526 1527 1527 1528 1529 1530 1531 1532 1534 1535 1536 1538 1539 1540 1541 1543
1496 1498 1499 1503 1505 1498 1496 1495 1495 1498 1500 1500 1502 1507 1510 1513 1513 1514 1516 1518 1519 1520 1521 1522 1522 1523 1523 1524 1524 1525 1526 1526 1527 1527 1528 1528 1529 1530 1531 1532 1533 1535 1537 1538 1540 1541 1543 1544 1546
1495 1497 1502 1507 1501 1494 1492 1493 1494 1497 1500 1503 1503 1509 1514 1515 1515 1516 1518 1519 1520 1521 1522 1523 1524 1524 1525 1525 1526 1526 1527 1527 1528 1528 1528 1529 1530 1530 1531 1533 1534 1536 1538 1540 1542 1543 1545 1547 1548
1496 1497 1508 1512 1502 1495 1493 1494 1496 1499 1503 1506 1507 1511 1516 1517 1517 1519 1520 1521 1522 1523 1524 1524 1525 1525 1526 1526 1527 1527 1528 1528 1529 1529 1529 1530 1531 1531 1532 1534 1536 1538 1540 1542 1543 1545 1547 1549 1550
1497 1500 1506 1505 1502 1499 1495 1495 1496 1500 1503 1506 1507 1511 1517 1519 1519 1520 1522 1523 1524 1524 1525 1525 1526 1526 1527 1527 1528 1528 1529 1529 1530 1530 1531 1531 1532 1532 1534 1535 1537 1539 1542 1543 1545 1547 1549 1551 1552
1493 1499 1504 1503 1502 1500 1495 1495 1497 1499 1503 1507 1507 1510 1516 1518 1520 1521 1523 1524 1525 1525 1526 1526 1527 1527 1528 1528 1529 1529 1530 1530 1531 1532 1532 1532 1533 1533 1534 1536 1538 1541 1543 1545 1547 1549 1551 1552 1554
1492 1502 1507 1501 1499 1498 1494 1496 1500 1500 1503 1506 1507 1509 1513 1517 1520 1522 1523 1525 1526 1526 1527 1528 1528 1528 1529 1529 1529 1530 1531 1531 1532 1533 1533 1534 1534 1535 1536 1538 1540 1543 1545 1547 1548 1550 1552 1553 1555
1489 1501 1496 1488 1488 1491 1492 1495 1498 1502 1504 1507 1510 1513 1515 1518 1520 1521 1523 1524 1526 1527 1528 1529 1529 1529 1529 1530 1530 1531 1531 1532 1533 1534 1535 1536 1537 1538 1539 1541 1542 1544 1546 1548 1550 1551 1553 1554 1555
1484 1488 1484 1483 1484 1487 1491 1495 1497 1500 1505 1506 1508 1512 1515 1518 1520 1521 1523 1524 1526 1527 1528 1529 1530 1530 1530 1530 1531 1531 1532 1533 1534 1535 1536 1537 1538 1540 1541 1542 1544 1546 1548 1549 1551 1552 1553 1554 1556
1482 1480 1481 1483 1485 1487 1490 1494 1498 1499 1502 1504 1506 1510 1514 1517 1519 1521 1522 1524 1526 1527 1528 1529 1530 1531 1531 1532 1532 1532 1533 1533 1535 1536 1538 1539 1540 1541 1543 1544 1546 1547 1549 1550 1551 1553 1554 1555 1556
1481 1481 1481 1482 1485 1487 1489 1492 1496 1500 1503 1506 1509 1512 1514 1516 1518 1521 1522 1524 1526 1527 1528 1530 1531 1531 1532 1532 1533 1533 1534 1534 1535 1537 1539 1540 1541 1542 1544 1545 1546 1548 1549 1550 1552 1553 1554 1555 1556
1481 1481 1483 1484 1486 1488 1490 1494 1497 1502 1503 1507 1509 1512 1514 1516 1518 1520 1522 1524 1525 1527 1528 1530 1531 1532 1532 1533 1533 1534 1535 1535 1536 1538 1539 1541 1542 1543 1544 1545 1547 1548 1549 1551 1552 1553 1554 1555 1556
1480 1483 1486 1486 1487 1491 1493 1500 1498 1500 1503 1507 1509 1511 1514 1516 1517 1519 1520 1522 1524 1526 1528 1529 1530 1532 1533 1533 1534 1535 1536 1536 1537 1539 1540 1541 1542 1543 1544 1545 1546 1548 1549 1550 1552 1553 1554 1555 1555
1483 1490 1499 1490 1488 1492 1498 1510 1501 1500 1502 1505 1509 1511 1512 1514 1516 1518 1520 1521 1524 1526 1527 1529 1530 1531 1532 1533 1534 1535 1536 1537 1538 1539 1540 1541 1542 1543 1544 1545 1546 1548 1549 1550 1551 1552 1553 1554 1555
1494 1502 1501 1494 1486 1489 1497 1506 1501 1502 1502 1503 1507 1509 1511 1513 1515 1517 1518 1520 1522 1524 1526 1528 1530 1531 1532 1533 1534 1535 1536 1537 1538 1539 1540 1541 1542 1543 1544 1545 1546 1547 1548 1549 1550 1551 1553 1553 1554
1503 1501 1497 1494 1486 1488 1495 1498 1497 1499 1500 1502 1504 1507 1509 1510 1512 1514 1517 1519 1521 1523 1525 1527 1529 1530 1531 1533 1534 1535 1536 1537 1538 1539 1540 1541 1542 1543 1544 1545 1546 1547 1547 1548 1549 1551 1552 1552 1553
1488 1492 1495 1489 1481 1487 1492 1494 1494 1495 1497 1499 1502 1503 1505 1507 1510 1512 1515 1517 1520 1522 1524 1526 1527 1529 1530 1532 1533 1534 1535 1536 1538 1539 1540 1541 1542 1542 1543 1544 1545 1546 1546 1547 1548 1549 1550 1551 1552
1485 1492 1492 1486 1480 1486 1492 1493 1490 1491 1491 1493 1495 1498 1501 1505 1508 1510 1512 1515 1517 1519 1521 1524 1525 1527 1529 1531 1532 1534 1535 1536 1537 1538 1539 1540 1541 1541 1542 1543 1544 1545 1545 1546 1547 1548 1549 1550 1551
1484 1489 1488 1488 1483 1484 1493 1501 1495 1490 1490 1492 1493 1494 1497 1500 1503 1506 1509 1511 1514 1517 1519 1521 1523 1525 1527 1530 1532 1533 1535 1535 1536 1537 1538 1539 1540 1540 1541 1542 1543 1544 1544 1545 1546 1547 1548 1548 1549
1487 1476 1477 1481 1492 1502 1497 1518 1500 1491 1490 1490 1491 1492 1494 1496 1499 1501 1505 1508 1511 1514 1517 1520 1522 1524 1526 1528 1529 1531 1532 1533 1534 1536 1537 1538 1538 1539 1540 1540 1541 1542 1543 1543 1544 1545 1545 1546 1546
1475 1469 1474 1479 1491 1502 1500 1511 1506 1492 1493 1488 1487 1488 1490 1492 1494 1498 1501 1504 1508 1512 1515 1518 1520 1523 1524 1526 1528 1529 1530 1532 1533 1535 1536 1536 1537 1538 1538 1539 1540 1540 1541 1541 1542 1543 1543 1544 1544
1465 1471 1478 1487 1499 1515 1502 1507 1509 1493 1484 1479 1480 1482 1485 1488 1492 1495 1498 1503 1506 1510 1513 1515 1518 1520 1522 1524 1526 1527 1529 1530 1531 1532 1533 1534 1535 1536 1537 1537 1538 1538 1539 1539 1540 1541 1541 1542 1542
1468 1489 1511 1517 1524 1518 1497 1501 1499 1476 1470 1471 1473 1476 1479 1484 1488 1492 1496 1499 1503 1506 1509 1512 1515 1518 1520 1522 1524 1525 1527 1528 1529 1530 1531 1532 1533 1534 1534 1535 1536 1536 1537 1538 1538 1538 1538 1539 1539
1470 1484 1511 1524 1526 1515 1498 1500 1485 1468 1465 1467 1469 1472 1476 1480 1484 1488 1491 1494 1499 1502 1506 1509 1512 1515 1517 1520 1521 1523 1525 1526 1527 1528 1529 1530 1531 1532 1533 1533 1534 1534 1535 1535 1535 1536 1536 1536 1536
1468 1477 1479 1499 1506 1514 1507 1492 1478 1466 1465 1466 1468 1471 1474 1476 1480 1484 1487 1491 1495 1499 1502 1505 1509 1512 1514 1517 1519 1521 1522 1524 1525 1526 1527 1528 1529 1530 1531 1531 1531 1532 1532 1532 1532 1533 1533 1533 1533
1457 1465 1484 1499 1514 1520 1509 1498 1492 1477 1472 1468 1468 1470 1471 1473 1477 1482 1485 1488 1493 1496 1500 1503 1507 1509 1512 1514 1516 1518 1520 1521 1523 1524 1525 1526 1527 1528 1528 1529 1529 1529 1529 1529 1530 1529 1530 1530 1530
1461 1467 1479 1493 1498 1513 1518 1504 1471 1469 1468 1468 1468 1469 1470 1473 1475 1478 1482 1486 1490 1494 1497 1500 1504 1507 1509 1511 1513 1515 1517 1519 1520 1521 1523 1523 1524 1525 1526 1526 1526 1526 1526 1526 1526 1526 1526 1526 1526
1454 1461 1473 1491 1497 1500 1506 1498 1463 1463 1463 1465 1467 1468 1469 1472 1474 1476 1480 1484 1487 1491 1494 1497 1500 1503 1506 1508 1510 1512 1514 1516 1517 1518 1519 1520 1521 1522 1523 1523 1523 1523 1523 1523 1523 1523 1523 1522 1522